User: anonymous   Login
Location: Unspecified
(0.0000°N, 0.0000°E)
Time: 06:55:20
(UTC+02:00)
Language:

Cosmos 1782 Rocket - Orbit

View from above orbital plane
View from above orbital plane
View from above satellite
View from above satellite

Ground track
Ground track

The orbit data is extracted from the following two-line orbital elements,

1 16987U 86074B   16272.93429939  .00000166  00000-0  17495-4 0  9995
2 16987  82.5190 195.0737 0019402  44.8596   1.1342 14.82921047619759
Epoch (UTC): 28 September 2016 22:25:23
Eccentricity: 0.0019402
inclination: 82.5190°
perigee height: 606 km
apogee height: 634 km
right ascension of ascending node: 195.0737°
argument of perigee: 44.8596°
revolutions per day: 14.82921047
mean anomaly at epoch: 1.1342°
orbit number at epoch: 61975

The dashed part of the orbit path shows where the satellite is in the earth's shadow,  

DLR